Volver al catálogo

STARLINK-32324

ActivoComunicacionesVLEO
NORAD 61863·PAYLOAD·🇺🇸 United States

Lanzado Nov 7, 2024 desde Cape Canaveral Space Force Station

Loading…

Próximos Pases (próximas 24 horas)

TLE

ActualizadoSource: CelesTrak SupGP

Época: Sep 15, 2026, 02:36 UTC

1 61863C 24202U   26258.10881944 -.00037803  00000+0 -13694-2 0  2587
2 61863  43.0023 248.4708 0001438 268.5625 115.3562 15.27593579    18

Sigue STARLINK-32324 en tiempo real con AllMySat

Download on the App Store